This is the latest recevied weather packets stored in our database for station/object NB9X. If no packets are shown the sender has not sent any weather packets the latest 10 day(s).
| Time | Temp. | Humidity | Pressure | Rain* | Wind** | Luminosity | Snow |
|---|---|---|---|---|---|---|---|
| 1787853577 | 28.89° C | 100% | 1015.1 hPa | 4.32 mm | - | - | - |
| 1787853277 | 28.89° C | 100% | 1015.2 hPa | 4.32 mm | - | - | - |
| 1787852977 | 27.78° C | 100% | 1015.3 hPa | 4.32 mm | - | - | - |
| 1787852677 | 26.67° C | 100% | 1015.2 hPa | 4.32 mm | - | - | - |
| 1787852377 | 26.67° C | 100% | 1015.4 hPa | 4.32 mm | - | - | - |
| 1787851777 | 26.67° C | 100% | 1015.6 hPa | 4.06 mm | - | - | - |
| 1787851477 | 27.78° C | 100% | 1016 hPa | 1.02 mm | - | - | - |
| 1787851177 | 31.11° C | 100% | 1015.7 hPa | 0 mm | - | - | - |
| 1787850877 | 33.33° C | 100% | 1015.4 hPa | 0 mm | - | - | - |
| 1787850577 | 34.44° C | 100% | 1015.4 hPa | 0 mm | - | - | - |
| 1787850277 | 34.44° C | 100% | 1015.7 hPa | 0 mm | - | - | - |
| 1787849977 | 33.89° C | 100% | 1015.9 hPa | 0 mm | - | - | - |
| 1787849677 | 33.89° C | 100% | 1016 hPa | 0 mm | - | - | - |
| 1787849377 | 35° C | 100% | 1016 hPa | 0 mm | - | - | - |
| 1787849077 | 34.44° C | 100% | 1016 hPa | 0 mm | - | - | - |
| 1787848777 | 34.44° C | 100% | 1015.8 hPa | 0 mm | - | - | - |
| 1787848479 | 34.44° C | 100% | 1015.7 hPa | 0 mm | - | - | - |
| 1787848177 | 34.44° C | 100% | 1015.8 hPa | 0 mm | - | - | - |
| 1787847877 | 33.89° C | 100% | 1015.8 hPa | 0 mm | - | - | - |
| 1787847577 | 33.89° C | 100% | 1015.9 hPa | 0 mm | - | - | - |
| 1787847277 | 33.89° C | 100% | 1015.9 hPa | 0 mm | - | - | - |
| 1787846977 | 33.89° C | 100% | 1015.9 hPa | 0 mm | - | - | - |
| 1787846677 | 33.89° C | 100% | 1015.9 hPa | 0 mm | - | - | - |
| 1787846377 | 33.33° C | 100% | 1016 hPa | 0 mm | - | - | - |
| 1787846077 | 33.89° C | 100% | 1015.9 hPa | 0 mm | - | - | - |
* Rain latest hour (hover to see other rain measurements)
** Current wind speed in m/s (hover to see current wind gust speed)